EWG75J LSGG-EDDL

Flight info

Callsign EWG75J
Flight time 1h 6m
Altitude 30000
Route DIPIR V25 ARBOS DCT PENDU DCT IXILU DCT GIVOR DCT SORAL DCT IBERA N853 DIK/N0410F310 N853 ARCKY T853 NVO T857 BIKMU BIKMU1A
Aircraft A320/M-SDE3FGHIRWY/LB1

Departure

Time 2026-02-19 10:02
Airport Geneva International Airport (LSGG)

Arrival

Time 2026-02-19 11:09
Airport Düsseldorf Airport (EDDL)
Time Latitude Longitude Altitude Speed Heading
2026-02-19 09:21 46.23006 6.10532 1400 ft 0 kts 135°
2026-02-19 09:49 46.23011 6.10524 1406 ft 2 kts 135°
2026-02-19 09:49 46.23025 6.10504 1401 ft 2 kts 135°
2026-02-19 09:50 46.23036 6.10487 1402 ft 3 kts 102°
2026-02-19 09:50 46.23034 6.10465 1397 ft 3 kts 51°
2026-02-19 09:50 46.23020 6.10445 1404 ft 2 kts 44°
2026-02-19 09:50 46.23015 6.10438 1404 ft 0 kts 45°
2026-02-19 09:54 46.23018 6.10442 1393 ft 2 kts 45°
2026-02-19 09:54 46.23047 6.10485 1393 ft 9 kts 46°
2026-02-19 09:55 46.23090 6.10546 1397 ft 8 kts 44°
2026-02-19 09:55 46.23137 6.10615 1397 ft 11 kts 46°
2026-02-19 09:55 46.23188 6.10692 1398 ft 10 kts 46°
2026-02-19 09:55 46.23236 6.10761 1397 ft 10 kts 40°
2026-02-19 09:56 46.23298 6.10792 1393 ft 9 kts 14°
2026-02-19 09:56 46.23403 6.10913 1393 ft 10 kts 45°
2026-02-19 09:56 46.23463 6.11001 1397 ft 15 kts 45°
2026-02-19 09:57 46.23533 6.11104 1396 ft 14 kts 45°
2026-02-19 09:57 46.23601 6.11161 1392 ft 11 kts 340°
2026-02-19 09:57 46.23652 6.11091 1394 ft 10 kts 314°
2026-02-19 09:57 46.23713 6.11090 1381 ft 12 kts 44°
2026-02-19 09:58 46.23801 6.11214 1375 ft 23 kts 47°
2026-02-19 09:58 46.23914 6.11386 1373 ft 24 kts 45°
2026-02-19 09:58 46.24031 6.11558 1370 ft 24 kts 45°
2026-02-19 09:58 46.24149 6.11732 1365 ft 24 kts 46°
2026-02-19 09:59 46.24268 6.11906 1362 ft 24 kts 45°
2026-02-19 09:59 46.24376 6.12066 1367 ft 20 kts 47°
2026-02-19 09:59 46.24470 6.12201 1372 ft 17 kts 45°
2026-02-19 09:59 46.24554 6.12326 1372 ft 20 kts 46°
2026-02-19 10:00 46.24667 6.12491 1365 ft 25 kts 45°
2026-02-19 10:00 46.24829 6.12684 1363 ft 10 kts 17°
2026-02-19 10:00 46.24885 6.12705 1365 ft 7 kts 16°
2026-02-19 10:01 46.24932 6.12726 1366 ft 8 kts 16°
2026-02-19 10:01 46.24994 6.12742 1370 ft 10 kts 350°
2026-02-19 10:01 46.25007 6.12657 1370 ft 8 kts 229°
2026-02-19 10:01 46.24957 6.12586 1372 ft 18 kts 226°
2026-02-19 10:02 46.24707 6.12220 1372 ft 84 kts 225°
2026-02-19 10:02 46.24157 6.11413 1374 ft 138 kts 225°
2026-02-19 10:02 46.23429 6.10363 1856 ft 145 kts 223°
2026-02-19 10:02 46.22743 6.09363 2715 ft 136 kts 224°
2026-02-19 10:03 46.22090 6.08374 3369 ft 139 kts 227°
2026-02-19 10:03 46.21434 6.07337 3949 ft 141 kts 227°
2026-02-19 10:03 46.20766 6.06296 4550 ft 141 kts 228°
2026-02-19 10:03 46.20093 6.05212 5012 ft 151 kts 231°
2026-02-19 10:04 46.19383 6.04015 5444 ft 163 kts 231°
2026-02-19 10:04 46.17672 6.01416 6343 ft 192 kts 229°
2026-02-19 10:04 46.16701 6.00054 7016 ft 198 kts 229°
2026-02-19 10:05 46.15743 5.98561 7617 ft 203 kts 242°
2026-02-19 10:05 46.15348 5.96632 8321 ft 207 kts 273°
2026-02-19 10:05 46.15749 5.94618 9069 ft 212 kts 294°
2026-02-19 10:05 46.16640 5.92905 9886 ft 218 kts 310°
2026-02-19 10:06 46.17841 5.91491 10544 ft 227 kts 320°
2026-02-19 10:06 46.18728 5.90678 11073 ft 229 kts 323°
2026-02-19 10:06 46.20161 5.89622 11798 ft 235 kts 330°
2026-02-19 10:06 46.21717 5.88768 12448 ft 243 kts 335°
2026-02-19 10:07 46.23340 5.88008 13180 ft 249 kts 336°
2026-02-19 10:07 46.25007 5.87255 13835 ft 252 kts 337°
2026-02-19 10:07 46.26698 5.86479 14299 ft 263 kts 334°
2026-02-19 10:07 46.28491 5.85518 14500 ft 286 kts 334°
2026-02-19 10:08 46.30438 5.84489 14671 ft 310 kts 335°
2026-02-19 10:08 46.34846 5.82489 15204 ft 347 kts 340°
2026-02-19 10:08 46.37243 5.81763 15811 ft 358 kts 352°
2026-02-19 10:09 46.39761 5.82088 16448 ft 370 kts
2026-02-19 10:09 46.42283 5.82911 17136 ft 373 kts
2026-02-19 10:09 46.44815 5.83777 17778 ft 377 kts 10°
2026-02-19 10:09 46.47375 5.84677 18377 ft 380 kts 11°
2026-02-19 10:10 46.49960 5.85597 18961 ft 383 kts 11°
2026-02-19 10:10 46.52557 5.86522 19546 ft 385 kts 10°
2026-02-19 10:10 46.55172 5.87444 20152 ft 388 kts 10°
2026-02-19 10:10 46.57801 5.88363 20746 ft 391 kts 10°
2026-02-19 10:11 46.60453 5.89286 21326 ft 393 kts 10°
2026-02-19 10:11 46.63122 5.90215 21901 ft 396 kts 10°
2026-02-19 10:11 46.65811 5.91154 22477 ft 399 kts 10°
2026-02-19 10:11 46.68481 5.92089 23030 ft 401 kts 10°
2026-02-19 10:12 46.71205 5.93045 23513 ft 404 kts 10°
2026-02-19 10:12 46.76709 5.94980 24401 ft 409 kts 10°
2026-02-19 10:12 46.79480 5.95952 24845 ft 412 kts 10°
2026-02-19 10:13 46.82275 5.96934 25277 ft 414 kts 10°
2026-02-19 10:13 46.85099 5.97927 25660 ft 418 kts 10°
2026-02-19 10:13 46.87937 5.98925 26034 ft 421 kts 11°
2026-02-19 10:13 46.90800 5.99935 26423 ft 424 kts 10°
2026-02-19 10:14 46.93669 6.00949 26798 ft 426 kts 10°
2026-02-19 10:14 46.99501 6.02622 27548 ft 427 kts
2026-02-19 10:14 47.02471 6.02717 27937 ft 428 kts 358°
2026-02-19 10:15 47.05458 6.02759 28266 ft 431 kts 357°
2026-02-19 10:15 47.08472 6.02804 28581 ft 434 kts 357°
2026-02-19 10:15 47.11507 6.02852 28934 ft 437 kts 357°
2026-02-19 10:15 47.14554 6.02901 29261 ft 439 kts 356°
2026-02-19 10:16 47.17616 6.02948 29585 ft 441 kts 357°
2026-02-19 10:16 47.23783 6.03052 30120 ft 446 kts 357°
2026-02-19 10:16 47.26895 6.03110 30339 ft 448 kts 358°
2026-02-19 10:17 47.30024 6.03168 30567 ft 451 kts 357°
2026-02-19 10:17 47.33164 6.03225 30778 ft 453 kts 357°
2026-02-19 10:17 47.36322 6.03283 31028 ft 455 kts 357°
2026-02-19 10:17 47.39485 6.03353 31340 ft 455 kts 357°
2026-02-19 10:18 47.42644 6.03425 31675 ft 454 kts 358°
2026-02-19 10:18 47.45811 6.03498 31959 ft 455 kts 358°
2026-02-19 10:18 47.48977 6.03569 32208 ft 456 kts 358°
2026-02-19 10:18 47.52151 6.03643 32509 ft 456 kts 358°
2026-02-19 10:19 47.55330 6.03718 32825 ft 456 kts 358°
2026-02-19 10:19 47.58504 6.03792 33134 ft 456 kts 358°
2026-02-19 10:19 47.61671 6.03866 33464 ft 456 kts 358°
2026-02-19 10:19 47.64844 6.03937 33582 ft 452 kts 358°
2026-02-19 10:20 47.67963 6.04007 33575 ft 447 kts 358°
2026-02-19 10:20 47.77208 6.05303 33578 ft 448 kts 12°
2026-02-19 10:21 47.86285 6.08728 33566 ft 449 kts 12°
2026-02-19 10:22 47.92360 6.11023 33558 ft 450 kts 12°
2026-02-19 10:22 47.98429 6.13313 33549 ft 450 kts 12°
2026-02-19 10:23 48.04505 6.15602 33542 ft 450 kts 12°
2026-02-19 10:23 48.10579 6.17911 33549 ft 451 kts 12°
2026-02-19 10:24 48.16661 6.20228 33528 ft 451 kts 12°
2026-02-19 10:24 48.25789 6.23706 33527 ft 451 kts 12°
2026-02-19 10:25 48.31874 6.26026 33530 ft 452 kts 12°
2026-02-19 10:25 48.37969 6.28361 33525 ft 452 kts 12°
2026-02-19 10:26 48.44065 6.30707 33527 ft 452 kts 12°
2026-02-19 10:26 48.50158 6.33060 33535 ft 452 kts 12°
2026-02-19 10:27 48.56256 6.35422 33553 ft 452 kts 13°
2026-02-19 10:27 48.62351 6.37796 33554 ft 452 kts 12°
2026-02-19 10:28 48.71640 6.39725 33554 ft 449 kts
2026-02-19 10:29 48.77840 6.40344 33551 ft 449 kts
2026-02-19 10:29 48.84082 6.40987 33550 ft 450 kts
2026-02-19 10:30 48.90327 6.41628 33561 ft 450 kts
2026-02-19 10:30 48.96561 6.42249 33551 ft 449 kts
2026-02-19 10:31 49.02798 6.42886 33564 ft 449 kts
2026-02-19 10:31 49.09038 6.43498 33554 ft 448 kts 358°
2026-02-19 10:32 49.15153 6.42250 33565 ft 443 kts 342°
2026-02-19 10:32 49.24086 6.38552 33525 ft 444 kts 343°
2026-02-19 10:33 49.30049 6.36106 33530 ft 444 kts 343°
2026-02-19 10:33 49.36020 6.33655 33540 ft 444 kts 343°
2026-02-19 10:34 49.41988 6.31191 33545 ft 444 kts 343°
2026-02-19 10:34 49.47959 6.28710 33551 ft 445 kts 343°
2026-02-19 10:35 49.53933 6.26228 33573 ft 445 kts 343°
2026-02-19 10:35 49.59910 6.23775 33572 ft 444 kts 343°
2026-02-19 10:36 49.68882 6.20105 33565 ft 444 kts 343°
2026-02-19 10:37 49.74858 6.17661 33564 ft 444 kts 343°
2026-02-19 10:37 49.80831 6.15190 33561 ft 444 kts 343°
2026-02-19 10:38 49.86869 6.13113 33552 ft 447 kts 354°
2026-02-19 10:38 49.93096 6.13001 33536 ft 447 kts 359°
2026-02-19 10:39 49.99327 6.13048 33535 ft 448 kts 359°
2026-02-19 10:39 50.05563 6.13090 33019 ft 451 kts 359°
2026-02-19 10:39 50.08695 6.13106 32416 ft 448 kts 360°
2026-02-19 10:40 50.11798 6.13121 31826 ft 445 kts
2026-02-19 10:40 50.17974 6.13150 30749 ft 442 kts
2026-02-19 10:40 50.21044 6.13171 30188 ft 441 kts
2026-02-19 10:41 50.24103 6.13194 29646 ft 440 kts
2026-02-19 10:41 50.27147 6.13472 28971 ft 436 kts 13°
2026-02-19 10:41 50.30082 6.14547 28334 ft 430 kts 23°
2026-02-19 10:41 50.32809 6.16341 27712 ft 422 kts 33°
2026-02-19 10:42 50.35292 6.18730 27098 ft 416 kts 39°
2026-02-19 10:42 50.37710 6.21217 26502 ft 415 kts 39°
2026-02-19 10:42 50.40120 6.23690 25924 ft 414 kts 39°
2026-02-19 10:42 50.42531 6.26160 25351 ft 413 kts 39°
2026-02-19 10:43 50.44926 6.28624 24792 ft 411 kts 39°
2026-02-19 10:43 50.47306 6.31084 24242 ft 409 kts 39°
2026-02-19 10:43 50.49688 6.33523 23676 ft 409 kts 36°
2026-02-19 10:43 50.52339 6.35243 23148 ft 418 kts 17°
2026-02-19 10:44 50.55253 6.35689 22529 ft 423 kts
2026-02-19 10:44 50.61009 6.36081 21312 ft 400 kts 15°
2026-02-19 10:44 50.63676 6.37054 20761 ft 389 kts 18°
2026-02-19 10:45 50.66267 6.38081 20189 ft 379 kts 18°
2026-02-19 10:45 50.68798 6.39098 19622 ft 372 kts 18°
2026-02-19 10:45 50.71292 6.40113 19070 ft 367 kts 18°
2026-02-19 10:45 50.73735 6.41108 18535 ft 358 kts 18°
2026-02-19 10:46 50.76120 6.42093 17998 ft 351 kts 18°
2026-02-19 10:46 50.78460 6.43066 17405 ft 344 kts 18°
2026-02-19 10:46 50.80747 6.44022 16820 ft 337 kts 18°
2026-02-19 10:46 50.82992 6.44968 16213 ft 330 kts 18°
2026-02-19 10:47 50.85191 6.45902 15608 ft 325 kts 18°
2026-02-19 10:47 50.87365 6.46835 15016 ft 321 kts 18°
2026-02-19 10:47 50.89509 6.47761 14438 ft 317 kts 18°
2026-02-19 10:47 50.91628 6.48683 13870 ft 315 kts 18°
2026-02-19 10:48 50.93732 6.49598 13297 ft 312 kts 18°
2026-02-19 10:48 50.97960 6.49792 12085 ft 307 kts 339°
2026-02-19 10:48 50.99810 6.48181 11491 ft 302 kts 325°
2026-02-19 10:49 51.01526 6.46283 10898 ft 299 kts 323°
2026-02-19 10:49 51.03219 6.44380 10319 ft 297 kts 323°
2026-02-19 10:49 51.04891 6.42498 9747 ft 293 kts 323°
2026-02-19 10:49 51.06548 6.40639 9144 ft 290 kts 323°
2026-02-19 10:50 51.08184 6.38802 8534 ft 286 kts 323°
2026-02-19 10:50 51.09797 6.36977 7930 ft 282 kts 323°
2026-02-19 10:50 51.11386 6.35178 7367 ft 278 kts 323°
2026-02-19 10:50 51.12481 6.34172 7018 ft 274 kts 339°
2026-02-19 10:51 51.14323 6.33759 6536 ft 268 kts
2026-02-19 10:51 51.16049 6.34781 6056 ft 265 kts 39°
2026-02-19 10:51 51.17199 6.36915 5580 ft 248 kts 70°
2026-02-19 10:51 51.17680 6.39475 5140 ft 236 kts 82°
2026-02-19 10:52 51.18009 6.41990 4747 ft 229 kts 83°
2026-02-19 10:52 51.18619 6.46959 4009 ft 226 kts 83°
2026-02-19 10:52 51.18918 6.49374 3726 ft 220 kts 84°
2026-02-19 10:53 51.19198 6.51706 3443 ft 215 kts 84°
2026-02-19 10:53 51.19485 6.53992 3158 ft 204 kts 84°
2026-02-19 10:53 51.19770 6.56095 3024 ft 187 kts 84°
2026-02-19 10:53 51.20053 6.58091 2991 ft 183 kts 83°
2026-02-19 10:54 51.20630 6.59951 2833 ft 192 kts 62°
2026-02-19 10:54 51.21452 6.61637 2465 ft 191 kts 61°
2026-02-19 10:54 51.22253 6.63273 2185 ft 183 kts 63°
2026-02-19 10:54 51.23009 6.64837 1916 ft 172 kts 63°
2026-02-19 10:55 51.23704 6.66279 1678 ft 155 kts 63°
2026-02-19 10:55 51.24329 6.67579 1463 ft 141 kts 62°
2026-02-19 10:55 51.24912 6.68778 1231 ft 135 kts 60°
2026-02-19 10:55 51.25471 6.69971 1050 ft 134 kts 60°
2026-02-19 10:56 51.26025 6.71162 853 ft 133 kts 58°
2026-02-19 10:56 51.27151 6.73513 510 ft 133 kts 55°
2026-02-19 10:56 51.27716 6.74680 315 ft 133 kts 56°
2026-02-19 10:57 51.28273 6.75849 149 ft 131 kts 56°
2026-02-19 10:57 51.28852 6.77079 330 ft 155 kts 57°
2026-02-19 10:57 51.29543 6.78599 994 ft 185 kts 58°
2026-02-19 10:57 51.30311 6.80416 1666 ft 206 kts 63°
2026-02-19 10:58 51.31131 6.82388 2438 ft 215 kts 60°
2026-02-19 10:58 51.32327 6.83869 3461 ft 229 kts 25°
2026-02-19 10:58 51.33936 6.84063 4291 ft 239 kts 347°
2026-02-19 10:58 51.35427 6.82983 5188 ft 237 kts 319°
2026-02-19 10:59 51.36452 6.80947 6024 ft 235 kts 290°
2026-02-19 10:59 51.36789 6.78417 6497 ft 233 kts 262°
2026-02-19 10:59 51.36380 6.75981 6624 ft 225 kts 239°
2026-02-19 10:59 51.35594 6.73819 6658 ft 224 kts 234°
2026-02-19 11:00 51.34739 6.71701 6366 ft 227 kts 233°
2026-02-19 11:00 51.33041 6.67502 5754 ft 223 kts 232°
2026-02-19 11:00 51.32210 6.65424 5459 ft 221 kts 233°
2026-02-19 11:01 51.31386 6.63339 5122 ft 221 kts 234°
2026-02-19 11:01 51.30559 6.61274 4794 ft 221 kts 233°
2026-02-19 11:01 51.29733 6.59206 4455 ft 220 kts 233°
2026-02-19 11:01 51.28910 6.57152 4142 ft 218 kts 233°
2026-02-19 11:02 51.28106 6.55135 3916 ft 213 kts 233°
2026-02-19 11:02 51.27328 6.53159 3671 ft 207 kts 230°
2026-02-19 11:02 51.26518 6.51313 3476 ft 198 kts 228°
2026-02-19 11:02 51.25732 6.49535 3246 ft 193 kts 228°
2026-02-19 11:03 51.24868 6.48016 3090 ft 179 kts 206°
2026-02-19 11:03 51.23756 6.47356 2964 ft 167 kts 179°
2026-02-19 11:03 51.22646 6.47606 2841 ft 159 kts 154°
2026-02-19 11:03 51.21766 6.48608 2746 ft 156 kts 131°
2026-02-19 11:04 51.21217 6.50108 2678 ft 157 kts 119°
2026-02-19 11:04 51.20252 6.53235 2673 ft 157 kts 120°
2026-02-19 11:04 51.19773 6.54794 2670 ft 157 kts 117°
2026-02-19 11:05 51.19563 6.56550 2670 ft 168 kts 94°
2026-02-19 11:05 51.19885 6.58283 2667 ft 161 kts 69°
2026-02-19 11:05 51.20531 6.59669 2616 ft 150 kts 63°
2026-02-19 11:05 51.21151 6.60959 2475 ft 144 kts 64°
2026-02-19 11:06 51.21746 6.62201 2303 ft 138 kts 65°
2026-02-19 11:06 51.22323 6.63404 2131 ft 134 kts 66°
2026-02-19 11:06 51.22886 6.64582 1948 ft 134 kts 65°
2026-02-19 11:06 51.23449 6.65758 1768 ft 133 kts 64°
2026-02-19 11:07 51.24006 6.66921 1564 ft 131 kts 63°
2026-02-19 11:07 51.24555 6.68081 1375 ft 131 kts 62°
2026-02-19 11:07 51.25115 6.69241 1189 ft 132 kts 60°
2026-02-19 11:07 51.25666 6.70418 998 ft 133 kts 59°
2026-02-19 11:08 51.26231 6.71589 799 ft 133 kts 57°
2026-02-19 11:08 51.27355 6.73945 430 ft 134 kts 56°
2026-02-19 11:08 51.27921 6.75118 244 ft 133 kts 56°
2026-02-19 11:09 51.28478 6.76281 132 ft 126 kts 57°
2026-02-19 11:09 51.28880 6.77130 126 ft 67 kts 53°
2026-02-19 11:09 51.29054 6.77505 127 ft 12 kts 85°
2026-02-19 11:09 51.29005 6.77567 125 ft 14 kts 141°
2026-02-19 11:10 51.28919 6.77653 124 ft 13 kts 183°
2026-02-19 11:10 51.28856 6.77547 127 ft 13 kts 233°
2026-02-19 11:10 51.28805 6.77439 128 ft 12 kts 232°
2026-02-19 11:10 51.28750 6.77327 127 ft 16 kts 234°
2026-02-19 11:11 51.28677 6.77170 129 ft 17 kts 233°
2026-02-19 11:11 51.28606 6.77021 127 ft 16 kts 232°
2026-02-19 11:11 51.28538 6.76879 123 ft 16 kts 232°
2026-02-19 11:11 51.28470 6.76738 124 ft 16 kts 232°
2026-02-19 11:12 51.28405 6.76599 124 ft 15 kts 233°
2026-02-19 11:12 51.28262 6.76483 125 ft 11 kts 220°
2026-02-19 11:12 51.28203 6.76435 127 ft 9 kts 190°
2026-02-19 11:13 51.28164 6.76426 128 ft 3 kts 187°
2026-02-19 11:13 51.28144 6.76422 128 ft 3 kts 187°
2026-02-19 11:13 51.28122 6.76422 127 ft 3 kts 161°
2026-02-19 11:13 51.28115 6.76447 124 ft 3 kts 105°
2026-02-19 11:14 51.28111 6.76503 125 ft 6 kts 95°
2026-02-19 11:14 51.28109 6.76538 127 ft 0 kts 97°